TimeEST,TemperatureF,Dew PointF,Humidity,Sea Level PressureIn,VisibilityMPH,Wind Direction,Wind SpeedMPH,Gust SpeedMPH,PrecipitationIn,Events,Conditions,WindDirDegrees,DateUTC
12:15 AM,57.2,-9999,N/A,30.00,3.0,Calm,Calm,-,N/A,Rain,Heavy Rain,0,2013-12-04 05:15:00
12:35 AM,55.4,-9999,N/A,30.00,7.0,ESE,4.6,-,N/A,Rain,Rain,120,2013-12-04 05:35:00
12:55 AM,55.4,-9999,N/A,30.00,5.0,Calm,Calm,-,N/A,Rain,Rain,0,2013-12-04 05:55:00
1:15 AM,55.4,-9999,N/A,30.00,3.0,ENE,3.5,-,N/A,Rain,Light Rain,60,2013-12-04 06:15:00
1:35 AM,55.4,-9999,N/A,30.00,4.0,Calm,Calm,-,N/A,Rain,Rain,0,2013-12-04 06:35:00
1:55 AM,55.4,-9999,N/A,30.00,4.0,ENE,3.5,-,N/A,Rain,Heavy Rain,60,2013-12-04 06:55:00
2:15 AM,57.2,-9999,N/A,29.99,7.0,SE,5.8,-,N/A,Rain,Light Rain,130,2013-12-04 07:15:00
2:35 AM,57.2,-9999,N/A,29.98,4.0,SE,5.8,-,N/A,Rain,Heavy Rain,130,2013-12-04 07:35:00
2:55 AM,57.2,-9999,N/A,29.99,7.0,SE,3.5,-,N/A,Rain,Light Rain,140,2013-12-04 07:55:00
3:15 AM,57.2,-9999,N/A,29.99,4.0,Calm,Calm,-,N/A,Rain,Rain,0,2013-12-04 08:15:00
3:35 AM,57.2,-9999,N/A,30.00,5.0,SSE,3.5,-,N/A,Rain,Light Rain,160,2013-12-04 08:35:00
3:55 AM,57.2,-9999,N/A,30.00,4.0,South,3.5,-,N/A,Rain,Heavy Rain,170,2013-12-04 08:55:00
4:15 AM,57.2,-9999,N/A,30.00,5.0,Calm,Calm,-,N/A,Rain,Rain,0,2013-12-04 09:15:00
4:35 AM,57.2,-9999,N/A,30.00,4.0,Calm,Calm,-,N/A,Rain,Rain,0,2013-12-04 09:35:00
4:55 AM,57.2,-9999,N/A,30.00,4.0,Calm,Calm,-,N/A,Rain,Rain,0,2013-12-04 09:55:00
5:15 AM,57.2,-9999,N/A,29.99,4.0,Calm,Calm,-,N/A,,Haze,0,2013-12-04 10:15:00
5:35 AM,57.2,-9999,N/A,30.00,4.0,Calm,Calm,-,N/A,,Haze,0,2013-12-04 10:35:00
5:55 AM,57.2,-9999,N/A,30.01,3.0,Calm,Calm,-,N/A,,Overcast,0,2013-12-04 10:55:00
6:15 AM,57.2,-9999,N/A,30.02,3.0,Calm,Calm,-,N/A,,Overcast,0,2013-12-04 11:15:00
6:35 AM,57.2,-9999,N/A,30.02,3.0,Calm,Calm,-,N/A,,Overcast,0,2013-12-04 11:35:00
6:55 AM,59.0,-9999,N/A,30.03,3.0,Calm,Calm,-,N/A,,Overcast,0,2013-12-04 11:55:00
7:15 AM,57.2,-9999,N/A,30.04,2.5,SSW,3.5,-,N/A,,Overcast,200,2013-12-04 12:15:00
7:35 AM,59.0,-9999,N/A,30.04,3.0,South,4.6,-,N/A,,Overcast,190,2013-12-04 12:35:00
7:55 AM,59.0,-9999,N/A,30.05,1.2,South,5.8,-,N/A,,Overcast,170,2013-12-04 12:55:00
8:15 AM,59.0,-9999,N/A,30.05,0.2,Calm,Calm,-,N/A,Fog,Fog,0,2013-12-04 13:15:00
8:35 AM,59.0,-9999,N/A,30.06,0.2,SSW,3.5,-,N/A,Fog,Fog,200,2013-12-04 13:35:00
8:55 AM,59.0,-9999,N/A,30.06,0.2,South,4.6,-,N/A,Fog,Fog,190,2013-12-04 13:55:00
9:15 AM,60.8,-9999,N/A,30.07,1.0,SSW,4.6,-,N/A,,Overcast,210,2013-12-04 14:15:00
9:35 AM,60.8,-9999,N/A,30.08,1.8,SSW,5.8,-,N/A,,Overcast,210,2013-12-04 14:35:00
10:15 AM,60.8,-9999,N/A,30.10,1.2,SSW,4.6,-,N/A,,Overcast,210,2013-12-04 15:15:00
10:35 AM,60.8,-9999,N/A,30.10,3.0,SSW,3.5,-,N/A,,Overcast,210,2013-12-04 15:35:00
10:55 AM,62.6,-9999,N/A,30.10,5.0,SW,3.5,-,N/A,,Haze,230,2013-12-04 15:55:00
11:15 AM,62.6,-9999,N/A,30.10,7.0,WSW,4.6,-,N/A,,Overcast,250,2013-12-04 16:15:00
11:35 AM,64.4,-9999,N/A,30.10,7.0,Calm,Calm,-,N/A,,Overcast,0,2013-12-04 16:35:00
11:55 AM,64.4,64.4,100,30.09,10.0,SW,3.5,-,N/A,,Overcast,220,2013-12-04 16:55:00
12:15 PM,64.4,64.4,100,30.08,10.0,SSW,3.5,-,N/A,,Overcast,210,2013-12-04 17:15:00
12:35 PM,66.2,66.2,100,30.07,10.0,SSW,5.8,-,N/A,,Overcast,200,2013-12-04 17:35:00
12:55 PM,68.0,64.4,88,30.07,10.0,South,4.6,-,N/A,,Overcast,190,2013-12-04 17:55:00
1:15 PM,68.0,66.2,94,30.06,10.0,SSE,4.6,-,N/A,,Mostly Cloudy,150,2013-12-04 18:15:00
1:35 PM,68.0,64.4,88,30.04,10.0,South,6.9,-,N/A,,Mostly Cloudy,170,2013-12-04 18:35:00
1:55 PM,68.0,64.4,88,30.05,10.0,SW,5.8,-,N/A,,Overcast,220,2013-12-04 18:55:00
2:15 PM,68.0,64.4,88,30.05,10.0,West,8.1,-,N/A,,Overcast,260,2013-12-04 19:15:00
2:35 PM,68.0,64.4,88,30.04,10.0,SSW,4.6,-,N/A,,Mostly Cloudy,210,2013-12-04 19:35:00
2:55 PM,68.0,64.4,88,30.04,10.0,South,3.5,-,N/A,,Mostly Cloudy,180,2013-12-04 19:55:00
3:15 PM,68.0,64.4,88,30.04,10.0,SSW,5.8,-,N/A,,Mostly Cloudy,200,2013-12-04 20:15:00
3:35 PM,68.0,64.4,88,30.05,10.0,SSW,5.8,-,N/A,,Mostly Cloudy,210,2013-12-04 20:35:00
3:55 PM,69.8,64.4,83,30.05,10.0,Calm,Calm,-,N/A,,Mostly Cloudy,0,2013-12-04 20:55:00
4:35 PM,68.0,64.4,88,30.05,10.0,South,3.5,-,N/A,,Scattered Clouds,190,2013-12-04 21:35:00
4:55 PM,66.2,64.4,94,30.05,10.0,Calm,Calm,-,N/A,,Clear,0,2013-12-04 21:55:00
5:15 PM,64.4,64.4,100,30.06,10.0,Calm,Calm,-,N/A,,Clear,0,2013-12-04 22:15:00
5:35 PM,62.6,62.6,100,30.06,10.0,Calm,Calm,-,N/A,,Scattered Clouds,0,2013-12-04 22:35:00
5:55 PM,60.8,60.8,100,30.07,7.0,South,3.5,-,N/A,,Clear,180,2013-12-04 22:55:00
6:15 PM,60.8,-9999,N/A,30.07,5.0,SSE,5.8,-,N/A,,Haze,150,2013-12-04 23:15:00
6:35 PM,60.8,-9999,N/A,30.08,7.0,Calm,Calm,-,N/A,,Scattered Clouds,0,2013-12-04 23:35:00
6:55 PM,59.0,-9999,N/A,30.08,5.0,Calm,Calm,-,N/A,,Haze,0,2013-12-04 23:55:00
7:15 PM,59.0,-9999,N/A,30.08,7.0,SE,4.6,-,N/A,,Clear,140,2013-12-05 00:15:00
7:35 PM,60.8,-9999,N/A,30.09,7.0,SSE,4.6,-,N/A,,Clear,150,2013-12-05 00:35:00
7:55 PM,57.2,-9999,N/A,30.09,2.5,Calm,Calm,-,N/A,,Clear,0,2013-12-05 00:55:00
8:15 PM,57.2,-9999,N/A,30.09,2.0,SSE,4.6,-,N/A,,Clear,160,2013-12-05 01:15:00
8:35 PM,59.0,-9999,N/A,30.09,3.0,SE,3.5,-,N/A,,Clear,140,2013-12-05 01:35:00
8:55 PM,59.0,-9999,N/A,30.10,1.0,SSE,3.5,-,N/A,,Mist,160,2013-12-05 01:55:00
9:15 PM,57.2,-9999,N/A,30.11,0.8,SSE,5.8,-,N/A,,Mist,160,2013-12-05 02:15:00
9:35 PM,60.8,-9999,N/A,30.11,4.0,SSE,5.8,-,N/A,,Haze,160,2013-12-05 02:35:00
9:55 PM,60.8,-9999,N/A,30.11,5.0,SSE,4.6,-,N/A,,Haze,150,2013-12-05 02:55:00
10:15 PM,60.8,-9999,N/A,30.11,4.0,SSE,4.6,-,N/A,,Haze,150,2013-12-05 03:15:00
10:35 PM,60.8,-9999,N/A,30.11,5.0,SSE,5.8,-,N/A,,Haze,150,2013-12-05 03:35:00
10:55 PM,60.8,-9999,N/A,30.11,5.0,SE,4.6,-,N/A,,Haze,140,2013-12-05 03:55:00
11:15 PM,60.8,-9999,N/A,30.12,5.0,SSE,3.5,-,N/A,,Haze,150,2013-12-05 04:15:00
11:35 PM,60.8,-9999,N/A,30.12,4.0,SSE,4.6,-,N/A,,Haze,160,2013-12-05 04:35:00
11:55 PM,60.8,-9999,N/A,30.12,5.0,SE,3.5,-,N/A,,Haze,140,2013-12-05 04:55:00